Alva, OK

8:19 PM CDT on May 25, 2017 (GMT -0500)
Alva Regional

Weather History for KAVK - April, 2013

Change the Weather History Date:

Tuesday, April 16, 2013

  Actual Average Record
Temperature  
Mean Temperature 46 °F -  
Max Temperature 48 °F 75 °F 93 °F (1963)
Min Temperature 44 °F 48 °F 29 °F (1953)
Degree Days  
Heating Degree Days 19    
Moisture  
Dew Point 36 °F    
Average Humidity 68    
Maximum Humidity 100    
Minimum Humidity 50    
Precipitation  
Precipitation 0.00 in - - ()
Sea Level Pressure  
Sea Level Pressure 29.97 in    
Wind  
Wind Speed 15 mph (NE)    
Max Wind Speed 24 mph    
Max Gust Speed 30 mph    
Visibility 9 miles    
Events Rain    
Averages and records for this station are not official NWS values.
T = Trace of Precipitation, MM = Missing Value Source: NWS Daily Summary

Daily Weather History Graph

Daily Weather History Graph

Search for Another Location

Airport or City:

Trip Planner

Search our weather history database for the weather conditions in past years. The results will help you decide how hot, cold, wet, or windy it might be!

Date:

Astronomy

Apr. 16, 2013 Rise Set
Actual Time 6:58 AM CDT 8:10 PM CDT
Civil Twilight 6:32 AM CDT 8:37 PM CDT
Nautical Twilight 6:00 AM CDT 9:09 PM CDT
Astronomical Twilight 5:27 AM CDT 9:42 PM CDT
Moon 11:22 AM CDT (4/16) 1:04 AM CDT (4/16)
Length of Visible Light 14h 04m
Length of Day
13h 11m
Waxing Crescent, 33% of the Moon is Illuminated
Apr 16
Waxing Crescent
Apr 18
First Quarter
Apr 25
Full
May 2
Last Quarter
May 9
New

Hourly Weather History & Observations

Time (CDT) Temp. Windchill Dew Point Humidity Pressure Visibility Wind Dir Wind Speed Gust Speed Precip Events Conditions
12:10 AM 44.6 °F 38.4 °F 32.0 °F 61% 29.89 in 10.0 mi ENE 12.7 mph - N/A   Overcast
12:30 AM 44.6 °F 38.8 °F 32.0 °F 61% 29.88 in 10.0 mi NE 11.5 mph - N/A   Overcast
12:50 AM 44.6 °F 38.8 °F 32.0 °F 61% 29.88 in 10.0 mi ENE 11.5 mph - N/A   Overcast
1:10 AM 46.4 °F 39.8 °F 32.0 °F 57% 29.87 in 10.0 mi ENE 16.1 mph 20.7 mph N/A   Overcast
1:30 AM 46.4 °F 39.5 °F 30.2 °F 53% 29.88 in 10.0 mi NE 17.3 mph 24.2 mph N/A   Overcast
1:50 AM 46.4 °F 39.5 °F 28.4 °F 50% 29.88 in 10.0 mi NE 17.3 mph 25.3 mph N/A   Overcast
2:10 AM 46.4 °F 39.8 °F 28.4 °F 50% 29.89 in 10.0 mi ENE 16.1 mph 25.3 mph N/A   Overcast
2:30 AM 46.4 °F 39.2 °F 28.4 °F 50% 29.88 in 10.0 mi ENE 18.4 mph 24.2 mph N/A   Overcast
2:50 AM 46.4 °F 39.8 °F 28.4 °F 50% 29.88 in 10.0 mi NE 16.1 mph 21.9 mph N/A   Overcast
3:10 AM 46.4 °F 40.1 °F 28.4 °F 50% 29.89 in 10.0 mi NE 15.0 mph 24.2 mph N/A   Overcast
3:30 AM 46.4 °F 40.1 °F 28.4 °F 50% 29.90 in 10.0 mi NE 15.0 mph 27.6 mph N/A   Overcast
3:50 AM 44.6 °F 36.9 °F 28.4 °F 53% 29.90 in 10.0 mi NE 18.4 mph 25.3 mph N/A   Overcast
4:10 AM 44.6 °F 36.4 °F 28.4 °F 53% 29.91 in 10.0 mi NE 20.7 mph 27.6 mph N/A   Overcast
4:30 AM 44.6 °F 36.9 °F 28.4 °F 53% 29.91 in 10.0 mi NE 18.4 mph 25.3 mph N/A   Overcast
4:50 AM 44.6 °F 35.7 °F 28.4 °F 53% 29.92 in 10.0 mi NE 24.2 mph 29.9 mph N/A   Overcast
5:10 AM 44.6 °F 36.4 °F 28.4 °F 53% 29.93 in 10.0 mi NE 20.7 mph 27.6 mph N/A   Overcast
5:30 AM 44.6 °F 37.2 °F 28.4 °F 53% 29.94 in 10.0 mi NNE 17.3 mph 28.8 mph N/A   Overcast
5:50 AM 44.6 °F 36.4 °F 28.4 °F 53% 29.94 in 10.0 mi NE 20.7 mph 26.5 mph N/A   Overcast
6:10 AM 44.6 °F 36.6 °F 28.4 °F 53% 29.95 in 10.0 mi NE 19.6 mph 23.0 mph N/A   Overcast
6:30 AM 44.6 °F 37.8 °F 28.4 °F 53% 29.96 in 10.0 mi NE 15.0 mph 21.9 mph N/A   Overcast
6:50 AM 44.6 °F 37.4 °F 28.4 °F 53% 29.97 in 10.0 mi NE 16.1 mph 21.9 mph N/A   Overcast
7:10 AM 44.6 °F 37.4 °F 28.4 °F 53% 29.98 in 10.0 mi NE 16.1 mph 20.7 mph N/A   Overcast
7:30 AM 44.6 °F 36.6 °F 28.4 °F 53% 29.98 in 10.0 mi NE 19.6 mph 25.3 mph N/A   Overcast
7:50 AM 44.6 °F 37.2 °F 28.4 °F 53% 30.01 in 10.0 mi NE 17.3 mph 21.9 mph N/A   Overcast
8:10 AM 44.6 °F 37.2 °F 30.2 °F 57% 30.01 in 10.0 mi NE 17.3 mph 23.0 mph N/A   Overcast
8:30 AM 44.6 °F 36.9 °F 30.2 °F 57% 30.02 in 10.0 mi NE 18.4 mph 21.9 mph N/A   Overcast
8:50 AM 44.6 °F 36.1 °F 30.2 °F 57% 30.02 in 10.0 mi NE 21.9 mph 26.5 mph N/A   Overcast
9:10 AM 44.6 °F 37.2 °F 32.0 °F 61% 30.03 in 10.0 mi NE 17.3 mph 25.3 mph N/A   Overcast
9:30 AM 44.6 °F 37.8 °F 32.0 °F 61% 30.03 in 10.0 mi ENE 15.0 mph 19.6 mph N/A   Overcast
9:50 AM 46.4 °F 39.5 °F 32.0 °F 57% 30.04 in 10.0 mi NE 17.3 mph 20.7 mph N/A   Overcast
10:10 AM 46.4 °F 39.2 °F 32.0 °F 57% 30.04 in 10.0 mi NE 18.4 mph 21.9 mph N/A   Overcast
10:30 AM 46.4 °F 40.1 °F 32.0 °F 57% 30.03 in 10.0 mi NE 15.0 mph 24.2 mph N/A   Overcast
10:50 AM 46.4 °F 39.2 °F 33.8 °F 62% 30.04 in 10.0 mi NE 18.4 mph - N/A   Overcast
11:10 AM 46.4 °F 40.1 °F 35.6 °F 66% 30.04 in 10.0 mi NE 15.0 mph 23.0 mph N/A   Overcast
11:30 AM 46.4 °F 39.5 °F 35.6 °F 66% 30.04 in 10.0 mi NE 17.3 mph 23.0 mph N/A   Overcast
11:50 AM 46.4 °F 40.1 °F 35.6 °F 66% 30.05 in 10.0 mi ENE 15.0 mph 25.3 mph N/A   Overcast
12:10 PM 46.4 °F 39.2 °F 35.6 °F 66% 30.04 in 10.0 mi NE 18.4 mph 23.0 mph N/A   Overcast
12:30 PM 46.4 °F 39.5 °F 37.4 °F 71% 30.04 in 10.0 mi NNE 17.3 mph 24.2 mph N/A   Overcast
12:50 PM 46.4 °F 39.2 °F 37.4 °F 71% 30.04 in 10.0 mi NE 18.4 mph - N/A   Overcast
1:10 PM 46.4 °F 39.5 °F 37.4 °F 71% 30.04 in 10.0 mi NE 17.3 mph 20.7 mph N/A   Overcast
1:30 PM 46.4 °F 39.8 °F 37.4 °F 71% 30.03 in 10.0 mi NE 16.1 mph 20.7 mph N/A   Overcast
1:50 PM 46.4 °F 39.8 °F 37.4 °F 71% 30.03 in 10.0 mi NE 16.1 mph - N/A   Overcast
2:10 PM 46.4 °F 39.8 °F 37.4 °F 71% 30.02 in 9.0 mi NE 16.1 mph 20.7 mph N/A   Overcast
2:30 PM 46.4 °F 40.1 °F 37.4 °F 71% 30.01 in 10.0 mi NE 15.0 mph 20.7 mph N/A   Overcast
2:50 PM 46.4 °F 40.1 °F 39.2 °F 76% 30.00 in 9.0 mi ENE 15.0 mph 21.9 mph N/A   Overcast
3:10 PM 48.2 °F - 39.2 °F 71% 29.99 in 10.0 mi NE 13.8 mph - N/A   Overcast
3:30 PM 48.2 °F - 39.2 °F 71% 29.99 in 9.0 mi ENE 16.1 mph 19.6 mph N/A   Overcast
3:50 PM 48.2 °F - 39.2 °F 71% 29.99 in 10.0 mi NE 15.0 mph 20.7 mph N/A   Overcast
4:10 PM 48.2 °F - 39.2 °F 71% 29.98 in 9.0 mi NE 13.8 mph 21.9 mph N/A   Overcast
4:30 PM 48.2 °F - 39.2 °F 71% 29.97 in 9.0 mi ENE 15.0 mph - N/A   Overcast
4:50 PM 48.2 °F - 39.2 °F 71% 29.97 in 9.0 mi East 13.8 mph - N/A   Overcast
5:10 PM 48.2 °F - 39.2 °F 71% 29.97 in 9.0 mi ENE 11.5 mph - N/A   Overcast
5:30 PM 48.2 °F - 39.2 °F 71% 29.97 in 8.0 mi ENE 15.0 mph - N/A   Overcast
5:50 PM 48.2 °F - 41.0 °F 76% 29.97 in 8.0 mi ENE 11.5 mph - N/A   Overcast
6:10 PM 48.2 °F - 41.0 °F 76% 29.98 in 8.0 mi ENE 11.5 mph - N/A   Overcast
6:30 PM 48.2 °F - 41.0 °F 76% 29.96 in 8.0 mi ENE 12.7 mph - N/A   Overcast
6:50 PM 48.2 °F - 41.0 °F 76% 29.96 in 9.0 mi ENE 12.7 mph 17.3 mph N/A   Overcast
7:10 PM 46.4 °F 40.4 °F 41.0 °F 81% 29.95 in 8.0 mi ENE 13.8 mph - N/A   Overcast
7:30 PM 46.4 °F 40.1 °F 41.0 °F 81% 29.95 in 8.0 mi ENE 15.0 mph - N/A   Overcast
7:50 PM 46.4 °F 41.1 °F 41.0 °F 81% 29.96 in 8.0 mi ENE 11.5 mph 18.4 mph N/A   Overcast
8:10 PM 46.4 °F 41.1 °F 41.0 °F 81% 29.97 in 8.0 mi East 11.5 mph - N/A   Overcast
8:30 PM 46.4 °F 42.4 °F 42.8 °F 87% 29.98 in 4.0 mi East 8.1 mph - N/A   Overcast
8:50 PM 46.4 °F 41.9 °F 44.6 °F 93% 29.98 in 2.5 mi ENE 9.2 mph - N/A Rain Light Rain
9:10 PM 44.6 °F 39.2 °F 44.6 °F 100% 29.97 in 2.5 mi East 10.4 mph - N/A Rain Light Rain
9:30 PM 44.6 °F 39.7 °F 44.6 °F 100% 29.98 in 3.0 mi ENE 9.2 mph - N/A   Mostly Cloudy
9:50 PM 44.6 °F 39.2 °F 44.6 °F 100% 29.96 in 4.0 mi ENE 10.4 mph - N/A   Overcast
10:10 PM 44.6 °F 38.8 °F 44.6 °F 100% 29.95 in 3.0 mi ENE 11.5 mph - N/A   Overcast
10:30 PM 44.6 °F 38.1 °F 44.6 °F 100% 29.95 in 3.0 mi ENE 13.8 mph - N/A   Overcast
10:50 PM 44.6 °F 39.2 °F 44.6 °F 100% 29.97 in 5.0 mi NE 10.4 mph - N/A   Overcast
11:10 PM 44.6 °F 38.8 °F 44.6 °F 100% 29.97 in 5.0 mi NE 11.5 mph - N/A   Overcast
11:30 PM 44.6 °F 39.7 °F 44.6 °F 100% 29.97 in 5.0 mi ENE 9.2 mph - N/A   Overcast
11:50 PM 44.6 °F 38.8 °F 44.6 °F 100% 29.96 in 4.0 mi NE 11.5 mph - N/A   Overcast